#timestamp,LO_Frequency,Hit,StdDev 
1585260015.3,286047005.7,N
1585260035.1,286047006.8,N
1585260055.9,286047013.0,Y
1585260075.7,286047003.3,P
1585260095.6,286047002.7,N
1585260115.4,286046998.4,N
1585260135.2,286047001.2,N
1585260155.1,286046997.6,N
1585260156.0,286046997.6,N
1585260175.8,286046994.1,N
1585260195.6,286046995.1,N
1585260215.5,286046995.5,N
1585260235.3,286046996.2,N
1585260255.2,286046997.2,N
1585260275.9,286047002.1,N
1585260295.7,286047008.1,N
1585260315.6,286046995.8,N
1585260335.4,286046989.6,N
1585260355.2,286046987.0,N
1585260375.1,286046978.0,Y
1585260376.0,286046978.0,P
1585260395.8,286046982.2,N
1585260415.7,286046981.1,N
1585260435.5,286046977.0,N
1585260455.3,286046973.2,Y
1585260475.2,286046990.8,P
1585260495.0,286046995.6,N
1585260495.9,286046995.6,N
1585260515.7,286047002.5,N
1585260535.6,286047011.3,N
1585260555.4,286047013.8,N
1585260575.3,286047006.4,N
1585260595.1,286047013.5,N
1585260596.0,286047013.5,N
1585260615.8,286047011.7,N
1585260635.7,286047001.8,N
1585260655.5,286046996.5,N
1585260675.4,286047000.8,N
1585260695.2,286047001.8,N
1585260715.0,286047007.2,N
1585260715.9,286047007.2,N
1585260735.8,286047010.6,N
1585260755.6,286047013.7,N
1585260775.4,286047020.8,N
1585260795.3,286047019.6,N
1585260815.1,286047020.3,N
1585260835.9,286047020.2,N
1585260855.7,286047015.3,N
1585260875.5,286047011.2,N
1585260895.4,286047003.3,N
1585260915.2,286046993.4,N
1585260935.0,286046987.7,N
1585260936.0,286046987.7,N
1585260955.8,286046989.4,N
1585260975.6,286046995.0,N
1585260995.5,286046994.1,N
1585261015.3,286046998.9,N
1585261035.1,286047000.2,N
1585261055.9,286047010.4,N
1585261075.7,286047004.9,N
1585261095.6,286047002.9,N
1585261115.4,286047007.6,N
1585261135.2,286046998.4,N
1585261155.1,286046987.1,N
1585261156.0,286046987.1,N
1585261175.8,286046997.1,N
1585261195.6,286047005.5,N
1585261215.5,286047012.4,N
1585261235.3,286047019.0,N
1585261255.2,286047023.1,N
1585261275.9,286047016.6,N
1585261295.7,286047023.4,N
1585261315.6,286047021.1,N
1585261335.4,286047016.5,N
1585261355.3,286047011.6,N
1585261375.1,286047009.5,N
1585261376.0,286047009.5,N
1585261395.8,286047010.1,N
1585261415.7,286047021.8,N
1585261435.5,286047015.9,N
1585261455.3,286047006.3,N
1585261475.2,286047008.4,N
1585261495.0,286047005.8,N
1585261495.9,286047005.8,N
1585261515.8,286046994.5,N
1585261535.6,286046987.3,N
1585261555.4,286046989.6,N
1585261575.3,286046982.4,N
1585261595.1,286046977.6,N
1585261615.9,286046973.9,N
1585261635.7,286046975.9,N
1585261655.5,286046984.2,N
1585261675.4,286046983.5,N
1585261695.2,286046988.4,N
1585261715.1,286046990.3,N
1585261716.0,286046990.3,N
1585261735.8,286046985.7,N
1585261755.6,286046980.1,N
1585261775.5,286046974.7,N
1585261795.3,286046988.1,N
1585261815.1,286046981.5,N
1585261835.9,286046977.0,N
1585261855.7,286046984.6,N
1585261875.6,286046988.3,N
1585261895.4,286046992.0,N
1585261915.2,286046984.4,N
1585261935.1,286046984.6,N
1585261936.0,286046984.6,N
1585261955.8,286046981.1,N
1585261975.6,286046975.4,N
1585261995.5,286046980.6,N
1585262015.3,286046986.6,N
1585262035.2,286046991.0,N
1585262055.9,286046999.5,N
1585262075.7,286047010.7,N
1585262095.6,286047002.7,N
1585262115.4,286047011.2,N
1585262135.2,286047009.8,N
1585262155.1,286047002.5,N
1585262156.0,286047002.5,N
1585262175.8,286046991.3,N
1585262195.7,286046994.8,N
1585262215.5,286046988.1,N
1585262235.3,286046986.8,N
1585262255.2,286046992.3,N
1585262275.0,286046996.6,N
1585262275.9,286046996.6,N
1585262295.7,286047003.5,N
1585262315.6,286047032.0,Y
1585262335.4,286047001.5,P
1585262355.3,286047009.1,N
1585262375.1,286047012.2,N
1585262376.0,286047012.2,N
1585262395.8,286047009.9,N
1585262415.7,286047008.7,N
1585262435.5,286047010.6,N
1585262455.3,286047011.9,N
1585262475.2,286047015.0,N
1585262495.0,286047014.4,N
1585262495.9,286047014.4,N
1585262515.8,286047021.4,Y
1585262535.6,286047013.2,P
1585262555.4,286047013.1,P
1585262575.3,286047012.8,P
1585262595.1,286047005.1,Y
1585262615.9,286046995.2,P
1585262635.7,286046993.6,N
1585262655.5,286046982.6,N
1585262675.4,286046975.2,N
1585262695.2,286046978.1,N
1585262715.0,286046979.0,N
1585262715.9,286046979.0,N
1585262735.8,286046983.6,N
1585262755.6,286046981.6,N
1585262775.5,286046966.2,Y
1585262795.3,286046979.9,P
1585262815.1,286046988.7,P
1585262835.9,286046987.3,P
1585262855.7,286046988.4,Y
1585262875.6,286047004.9,P
1585262895.4,286046998.4,N
1585262915.2,286047001.5,N
1585262935.1,286047014.1,N
1585262936.0,286047014.1,N
1585262955.8,286047022.2,N
1585262975.6,286047037.5,Y
1585262995.5,286047031.6,P
1585263015.3,286047042.4,P
1585263035.2,286047050.0,P
1585263055.9,286047050.9,Y
1585263075.7,286047027.1,P
1585263095.6,286047022.2,P
1585263115.4,286047026.4,P
1585263135.2,286047027.1,Y
1585263155.1,286046999.2,P
1585263156.0,286046999.2,N
1585263175.8,286046991.1,N
1585263195.7,286046991.2,N
1585263215.5,286047003.9,N
1585263235.3,286047015.4,N
1585263255.2,286047026.3,N
1585263275.0,286047032.9,N
1585263275.9,286047032.9,N
1585263295.7,286047037.2,N
1585263315.6,286047046.0,N
1585263335.4,286047039.5,N
1585263355.3,286047038.5,N
1585263375.1,286047038.9,N
1585263376.0,286047038.9,N
1585263395.8,286047044.0,N
1585263415.7,286047043.1,N
1585263435.5,286047037.5,N
1585263455.3,286047043.9,N
1585263475.2,286047039.0,N
1585263495.0,286047042.0,N
1585263495.9,286047042.0,N
1585263515.8,286047037.0,N
1585263535.6,286047033.2,N
1585263555.4,286047014.8,N
1585263575.3,286047012.9,N
1585263595.1,286047017.7,N
